Notices

What's New in latest Release from April 7th, 2021:

- Updated Glossary, including Speed of Maximum Gust, and Total Hourly Precipitation

- Updated national and regional climate services offices contacts and prices information

- Addition of station inventory lists for 1981-2010, 1971-2000, and 1961-1990 Normals.

If you haven't already, please take our survey and provide feedback about our website: https://eccc.sondage-survey.ca/f/LanguageSelection.aspx?s=442ca660-fcf1-47c0-95a9-59707d6fd709

Hourly Data Report for April 23, 2018

CLYDE RIVER A
NUNAVUT
Current Station Operator: NAVCAN

70°29'09.000" N
68°31'01.000" W
26.50 m
2400804
71090
YCY

Download Data

Hourly Data (April 2018)
Hourly Data Report for April 23, 2018
TIME
LST
Temp Definition
°C
Dew Point Definition
°C
Rel Hum Definition
%
Precip. Amount Definition
mm

Wind Dir Definition
10's deg

Wind Spd Definition
km/h
Visibility Definition
km
Stn Press Definition
kPa
Hmdx Definition


Wind Chill Definition


Weather Definition


00:00 -5.9 -7.0 92 0.0 33 13 8.1 99.79   -11 Snow
01:00 -6.5 -7.5 93 0.0 35 21 3.6 99.78   -14 Snow
02:00 -7.4 -8.5 92 0.0 34 21 2.8 99.79   -15 Snow
03:00 -8.1 -9.3 91 0.0 33 22 6.4 99.83   -16 Snow
04:00 -8.5 -9.9 90 0.0 33 22 16.1 99.87   -16 Snow
05:00 -8.6 -10.2 88 0.0 33 28 16.1 99.89   -17 Snow
06:00 -9.0 -10.6 88 0.0 33 30 2.4 99.90   -18 Snow
07:00 -9.4 -11.5 85 0.0 32 35 4.8 99.93   -19 Snow
08:00 -9.9 -12.0 85 0.0 32 35 4.0 99.95   -20 Snow
09:00 -9.9 -12.2 83 0.0 32 34 4.8 99.95   -20 Fog
10:00 -9.8 -12.3 82 0.0 32 34 14.5 99.97   -20 LegendNANA
11:00 -9.7 -12.5 80 0.0 32 35 9.7 99.98   -20 Fog
12:00 -10.0 -12.7 81 0.0 32 34 6.4 100.00   -20 Haze
13:00 -9.8 -12.4 81 0.0 33 32 11.3 100.04   -20 LegendNANA
14:00 -9.8 -12.8 79 0.0 33 26 16.1 100.08   -19 LegendNANA
15:00 -10.1 -12.8 81 0.0 32 24 16.1 100.11   -19 LegendNANA
16:00 -10.9 -13.3 83 0.0 32 26 16.1 100.14   -20 LegendNANA
17:00 -11.3 -13.5 84 0.0 34 24 16.1 100.18   -20 Snow
18:00 -11.6 -14.0 82 0.0 31 18 16.1 100.21   -19 LegendNANA
19:00 -12.6 -14.5 86 0.0 32 26 16.1 100.21   -22 LegendNANA
20:00 -13.7 -15.8 85 0.0 33 26 16.1 100.25   -24 LegendNANA
21:00 -15.1 -18.4 76 0.0 33 22 16.1 100.27   -25 LegendNANA
22:00 -16.3 -19.5 77 0.0 34 28 16.1 100.27   -27 LegendNANA
23:00 -16.0 -19.3 76 0.0 32 28 16.1 100.30   -27 LegendNANA

Notes on Data Quality.

Legend

  • E = Estimated
  • M = Missing
  • NA = Not Available*
  • [empty] = Indicates an unobserved value
Date modified: